This is the latest recevied weather packets stored in our database for station/object KI4BIY. If no packets are shown the sender has not sent any weather packets the latest 1 day(s).
| Time | Temp. | Humidity | Pressure | Rain* | Wind** | Luminosity | Snow |
|---|---|---|---|---|---|---|---|
| 1778028631 | 18.89° C | 99% | 1005.9 hPa | 0 mm | 0 m/s | 0 W/m² | - |
| 1778028329 | 18.89° C | 99% | 1006 hPa | 0 mm | 0 m/s | 0 W/m² | - |
| 1778028025 | 18.89° C | 99% | 1006 hPa | 0 mm | 0 m/s | 0 W/m² | - |
| 1778027722 | 18.89° C | 99% | 1006 hPa | 0 mm | 0 m/s | 0 W/m² | - |
| 1778027418 | 18.89° C | 99% | 1006.1 hPa | 0 mm | 0 m/s | 1 W/m² | - |
| 1778027114 | 18.89° C | 99% | 1005.9 hPa | 0 mm | 0 m/s | 3 W/m² | - |
| 1778026809 | 18.89° C | 99% | 1006.1 hPa | 0 mm | 0 m/s | 2 W/m² | - |
| 1778026506 | 18.89° C | 99% | 1005.9 hPa | 0 mm | 0 m/s | 2 W/m² | - |
| 1778026204 | 18.89° C | 99% | 1005.9 hPa | 0 mm | 0 m/s | 3 W/m² | - |
| 1778025901 | 18.89° C | 99% | 1005.8 hPa | 0 mm | 0 m/s | 2 W/m² | - |
| 1778025598 | 18.89° C | 99% | 1005.7 hPa | 0 mm | 0 m/s | 4 W/m² | - |
| 1778025296 | 18.89° C | 99% | 1005.9 hPa | 0 mm | 0 m/s | 5 W/m² | - |
| 1778024992 | 18.33° C | 99% | 1006.2 hPa | 0 mm | 0 m/s | 1 W/m² | - |
| 1778024690 | 18.33° C | 99% | 1006.2 hPa | 0 mm | 0 m/s | 4 W/m² | - |
| 1778024387 | 18.33° C | 99% | 1006.3 hPa | 0 mm | 0 m/s | 4 W/m² | - |
| 1778024084 | 18.89° C | 99% | 1006.3 hPa | 0 mm | 0 m/s | 5 W/m² | - |
| 1778023781 | 18.33° C | 99% | 1006.2 hPa | 0 mm | 0 m/s | 12 W/m² | - |
| 1778023480 | 18.33° C | 99% | 1006.5 hPa | 0 mm | 0 m/s | 13 W/m² | - |
| 1778023176 | 18.33° C | 99% | 1006.3 hPa | 0 mm | 0 m/s | 12 W/m² | - |
| 1778022873 | 18.33° C | 99% | 1006.2 hPa | 0 mm | 0 m/s | 11 W/m² | - |
| 1778022572 | 18.33° C | 99% | 1006.4 hPa | 0 mm | 0 m/s | 13 W/m² | - |
| 1778022269 | 18.33° C | 99% | 1006.3 hPa | 0 mm | 0 m/s | 11 W/m² | - |
| 1778021965 | 18.33° C | 99% | 1006.3 hPa | 0 mm | 0 m/s | 22 W/m² | - |
| 1778021663 | 18.33° C | 99% | 1006.5 hPa | 0 mm | 0 m/s | 17 W/m² | - |
| 1778021358 | 18.33° C | 99% | 1006.3 hPa | 0 mm | 0 m/s | 15 W/m² | - |
* Rain latest hour (hover to see other rain measurements)
** Current wind speed in m/s (hover to see current wind gust speed)